Time,TemperatureF,DewpointF,PressureIn,WindDirection,WindDirectionDegrees,WindSpeedMPH,WindSpeedGustMPH,Humidity,HourlyPrecipIn,Conditions,Clouds,dailyrainin,SoftwareType,DateUTC
2013-06-29 00:00:00,76.9,70.3,29.85,ESE,109,0.0,0.0,80,0.00,,---,0.77,VWS V14.01,2013-06-29 04:00:00,
2013-06-29 00:01:00,76.8,70.2,29.85,ESE,109,0.0,0.0,80,0.00,,---,0.00,VWS V14.01,2013-06-29 04:01:00,
2013-06-29 00:06:00,76.8,70.2,29.85,ESE,109,0.0,0.0,80,0.00,,---,0.00,VWS V14.01,2013-06-29 04:06:00,
2013-06-29 00:10:00,76.7,70.1,29.85,SSE,158,0.0,0.0,80,0.00,,---,0.00,VWS V14.01,2013-06-29 04:10:00,
2013-06-29 00:11:00,76.7,70.1,29.85,SSE,158,0.0,0.0,80,0.00,,---,0.00,VWS V14.01,2013-06-29 04:11:00,
2013-06-29 00:16:00,76.7,69.7,29.85,South,175,0.0,3.0,79,0.00,,---,0.00,VWS V14.01,2013-06-29 04:16:00,
2013-06-29 00:20:00,76.7,69.7,29.84,South,174,0.0,3.0,79,0.00,,---,0.00,VWS V14.01,2013-06-29 04:20:00,
2013-06-29 00:21:00,76.7,69.7,29.84,South,174,0.0,0.0,79,0.00,,---,0.00,VWS V14.01,2013-06-29 04:21:00,
2013-06-29 00:26:00,76.8,69.8,29.84,ESE,121,0.0,1.0,79,0.00,,---,0.00,VWS V14.01,2013-06-29 04:26:00,
2013-06-29 00:30:00,76.8,70.2,29.84,ESE,122,0.0,1.0,80,0.00,,---,0.00,VWS V14.01,2013-06-29 04:30:00,
2013-06-29 00:31:00,76.7,70.1,29.84,ESE,122,0.0,1.0,80,0.00,,---,0.00,VWS V14.01,2013-06-29 04:31:00,
2013-06-29 00:36:00,76.7,70.1,29.84,ESE,121,0.0,1.0,80,0.00,,---,0.00,VWS V14.01,2013-06-29 04:36:00,
2013-06-29 00:40:00,76.6,70.0,29.84,ESE,122,0.0,1.0,80,0.00,,---,0.00,VWS V14.01,2013-06-29 04:40:00,
2013-06-29 00:41:00,76.6,70.0,29.84,ESE,122,0.0,0.0,80,0.00,,---,0.00,VWS V14.01,2013-06-29 04:41:00,
2013-06-29 00:46:00,76.5,69.9,29.84,ESE,122,0.0,0.0,80,0.00,,---,0.00,VWS V14.01,2013-06-29 04:46:00,
2013-06-29 00:50:00,76.4,69.8,29.84,ESE,122,0.0,0.0,80,0.00,,---,0.00,VWS V14.01,2013-06-29 04:50:00,
2013-06-29 00:51:00,76.4,69.8,29.83,ENE,77,0.0,0.0,80,0.00,,---,0.00,VWS V14.01,2013-06-29 04:51:00,
2013-06-29 00:56:00,76.4,69.8,29.83,ENE,74,0.0,0.0,80,0.00,,---,0.00,VWS V14.01,2013-06-29 04:56:00,
2013-06-29 01:00:00,76.3,69.7,29.83,ENE,73,0.0,0.0,80,0.00,,---,0.00,VWS V14.01,2013-06-29 05:00:00,
2013-06-29 01:01:00,76.3,69.7,29.83,East,88,1.0,1.0,80,0.00,,---,0.00,VWS V14.01,2013-06-29 05:01:00,
2013-06-29 01:06:00,76.2,69.6,29.83,East,99,0.0,1.0,80,0.00,,---,0.00,VWS V14.01,2013-06-29 05:06:00,
2013-06-29 01:10:00,76.2,69.6,29.83,ESE,110,0.0,1.0,80,0.00,,---,0.00,VWS V14.01,2013-06-29 05:10:00,
2013-06-29 01:11:00,76.2,69.6,29.83,East,99,0.0,1.0,80,0.00,,---,0.00,VWS V14.01,2013-06-29 05:11:00,
2013-06-29 01:16:00,76.1,69.5,29.82,ESE,108,0.0,1.0,80,0.00,,---,0.00,VWS V14.01,2013-06-29 05:16:00,
2013-06-29 01:20:00,76.1,69.5,29.82,ESE,108,0.0,1.0,80,0.00,,---,0.00,VWS V14.01,2013-06-29 05:20:00,
2013-06-29 01:21:00,76.0,69.4,29.82,ESE,121,0.0,1.0,80,0.00,,---,0.00,VWS V14.01,2013-06-29 05:21:00,
2013-06-29 01:26:00,76.0,69.4,29.82,ESE,107,1.0,1.0,80,0.00,,---,0.00,VWS V14.01,2013-06-29 05:26:00,
2013-06-29 01:30:00,76.0,69.4,29.82,East,96,0.0,2.0,80,0.00,,---,0.00,VWS V14.01,2013-06-29 05:30:00,
2013-06-29 01:31:00,76.0,69.4,29.82,ESE,109,0.0,2.0,80,0.00,,---,0.00,VWS V14.01,2013-06-29 05:31:00,
2013-06-29 01:37:00,75.9,69.3,29.82,NNE,22,0.0,2.0,80,0.00,,---,0.00,VWS V14.01,2013-06-29 05:37:00,
2013-06-29 01:40:00,75.9,69.3,29.82,NW,318,1.0,2.0,80,0.00,,---,0.00,VWS V14.01,2013-06-29 05:40:00,
2013-06-29 01:41:00,75.9,69.3,29.82,SSW,203,0.0,2.0,80,0.00,,---,0.00,VWS V14.01,2013-06-29 05:41:00,
2013-06-29 01:47:00,75.8,69.2,29.81,ESE,116,2.0,2.0,80,0.00,,---,0.00,VWS V14.01,2013-06-29 05:47:00,
2013-06-29 01:50:00,75.8,69.2,29.81,ENE,72,0.0,2.0,80,0.00,,---,0.00,VWS V14.01,2013-06-29 05:50:00,
2013-06-29 01:52:00,75.8,69.2,29.81,ENE,75,1.0,2.0,80,0.00,,---,0.00,VWS V14.01,2013-06-29 05:52:00,
2013-06-29 01:57:00,75.8,69.2,29.80,ESE,117,0.0,2.0,80,0.00,,---,0.00,VWS V14.01,2013-06-29 05:57:00,
2013-06-29 02:00:00,75.8,69.2,29.81,NNW,327,0.0,3.0,80,0.00,,---,0.00,VWS V14.01,2013-06-29 06:00:00,
2013-06-29 02:02:00,75.8,69.2,29.80,NNW,336,1.0,1.0,80,0.00,,---,0.00,VWS V14.01,2013-06-29 06:02:00,
2013-06-29 02:07:00,75.8,69.2,29.80,East,100,0.0,3.0,80,0.00,,---,0.00,VWS V14.01,2013-06-29 06:07:00,
2013-06-29 02:10:00,75.8,69.2,29.80,East,80,0.0,3.0,80,0.00,,---,0.00,VWS V14.01,2013-06-29 06:10:00,
2013-06-29 02:12:00,75.8,69.2,29.80,WNW,285,0.0,2.0,80,0.00,,---,0.00,VWS V14.01,2013-06-29 06:12:00,
2013-06-29 02:17:00,75.8,68.8,29.81,ESE,120,0.0,2.0,79,0.00,,---,0.00,VWS V14.01,2013-06-29 06:17:00,
2013-06-29 02:20:00,75.8,68.8,29.81,SSW,211,0.0,2.0,79,0.00,,---,0.00,VWS V14.01,2013-06-29 06:20:00,
2013-06-29 02:22:00,75.8,68.8,29.81,ESE,113,0.0,0.0,79,0.00,,---,0.00,VWS V14.01,2013-06-29 06:22:00,
2013-06-29 02:27:00,75.8,68.8,29.81,East,82,0.0,0.0,79,0.00,,---,0.00,VWS V14.01,2013-06-29 06:27:00,
2013-06-29 02:30:00,75.8,68.8,29.81,West,271,0.0,0.0,79,0.00,,---,0.00,VWS V14.01,2013-06-29 06:30:00,
2013-06-29 02:32:00,75.8,68.8,29.81,ESE,108,0.0,0.0,79,0.00,,---,0.00,VWS V14.01,2013-06-29 06:32:00,
2013-06-29 02:37:00,75.8,68.8,29.81,ESE,108,0.0,0.0,79,0.00,,---,0.00,VWS V14.01,2013-06-29 06:37:00,
2013-06-29 02:40:00,75.8,68.8,29.81,East,98,0.0,0.0,79,0.00,,---,0.00,VWS V14.01,2013-06-29 06:40:00,
2013-06-29 02:42:00,75.8,68.8,29.81,SE,146,0.0,0.0,79,0.00,,---,0.00,VWS V14.01,2013-06-29 06:42:00,
2013-06-29 02:47:00,75.8,68.8,29.81,SE,143,0.0,0.0,79,0.00,,---,0.00,VWS V14.01,2013-06-29 06:47:00,
2013-06-29 02:50:00,75.8,68.8,29.81,East,99,0.0,1.0,79,0.00,,---,0.00,VWS V14.01,2013-06-29 06:50:00,
2013-06-29 02:52:00,75.9,68.9,29.81,ESE,120,0.0,1.0,79,0.00,,---,0.00,VWS V14.01,2013-06-29 06:52:00,
2013-06-29 02:57:00,75.9,68.9,29.81,East,86,0.0,2.0,79,0.00,,---,0.00,VWS V14.01,2013-06-29 06:57:00,
2013-06-29 03:00:00,75.9,68.9,29.81,WSW,248,1.0,2.0,79,0.00,,---,0.00,VWS V14.01,2013-06-29 07:00:00,
2013-06-29 03:02:00,75.9,68.9,29.81,ENE,76,1.0,3.0,79,0.00,,---,0.00,VWS V14.01,2013-06-29 07:02:00,
2013-06-29 03:07:00,76.0,69.0,29.81,ESE,107,0.0,3.0,79,0.00,,---,0.00,VWS V14.01,2013-06-29 07:07:00,
2013-06-29 03:10:00,76.0,69.0,29.81,ESE,107,0.0,3.0,79,0.00,,---,0.00,VWS V14.01,2013-06-29 07:10:00,
2013-06-29 03:12:00,75.9,68.9,29.81,ESE,113,0.0,0.0,79,0.00,,---,0.00,VWS V14.01,2013-06-29 07:12:00,
2013-06-29 03:17:00,75.9,68.9,29.81,SW,221,0.0,2.0,79,0.00,,---,0.00,VWS V14.01,2013-06-29 07:17:00,
2013-06-29 03:20:00,75.9,68.9,29.81,SW,221,0.0,2.0,79,0.00,,---,0.00,VWS V14.01,2013-06-29 07:20:00,
2013-06-29 03:22:00,75.8,68.8,29.81,SW,224,0.0,0.0,79,0.00,,---,0.00,VWS V14.01,2013-06-29 07:22:00,
2013-06-29 03:27:00,75.8,68.8,29.81,SE,127,0.0,2.0,79,0.00,,---,0.00,VWS V14.01,2013-06-29 07:27:00,
2013-06-29 03:30:00,75.8,68.8,29.81,SE,125,0.0,2.0,79,0.00,,---,0.00,VWS V14.01,2013-06-29 07:30:00,
2013-06-29 03:32:00,75.8,68.8,29.81,SSW,211,0.0,1.0,79,0.00,,---,0.00,VWS V14.01,2013-06-29 07:32:00,
2013-06-29 03:37:00,75.8,68.8,29.81,SSW,207,0.0,1.0,79,0.00,,---,0.00,VWS V14.01,2013-06-29 07:37:00,
2013-06-29 03:40:00,75.8,68.8,29.82,SSW,211,0.0,1.0,79,0.00,,---,0.00,VWS V14.01,2013-06-29 07:40:00,
2013-06-29 03:42:00,75.8,68.8,29.82,SW,224,0.0,1.0,79,0.00,,---,0.00,VWS V14.01,2013-06-29 07:42:00,
2013-06-29 03:47:00,75.8,68.8,29.82,WSW,243,0.0,1.0,79,0.00,,---,0.00,VWS V14.01,2013-06-29 07:47:00,
2013-06-29 03:50:00,75.8,68.8,29.82,WSW,243,0.0,1.0,79,0.00,,---,0.00,VWS V14.01,2013-06-29 07:50:00,
2013-06-29 03:52:00,75.8,68.8,29.82,WNW,284,0.0,3.0,79,0.00,,---,0.00,VWS V14.01,2013-06-29 07:52:00,
2013-06-29 03:57:00,75.9,68.9,29.82,WNW,284,0.0,3.0,79,0.00,,---,0.00,VWS V14.01,2013-06-29 07:57:00,
2013-06-29 04:00:00,75.8,68.8,29.82,WSW,243,0.0,3.0,79,0.00,,---,0.00,VWS V14.01,2013-06-29 08:00:00,
2013-06-29 04:02:00,75.8,68.8,29.82,SW,228,0.0,2.0,79,0.00,,---,0.00,VWS V14.01,2013-06-29 08:02:00,
2013-06-29 04:07:00,75.9,68.9,29.82,SW,224,0.0,2.0,79,0.00,,---,0.00,VWS V14.01,2013-06-29 08:07:00,
2013-06-29 04:10:00,75.9,68.9,29.82,SW,222,0.0,2.0,79,0.00,,---,0.00,VWS V14.01,2013-06-29 08:10:00,
2013-06-29 04:12:00,75.9,68.9,29.82,SW,223,0.0,1.0,79,0.00,,---,0.00,VWS V14.01,2013-06-29 08:12:00,
2013-06-29 04:17:00,75.9,68.9,29.82,ESE,110,0.0,1.0,79,0.00,,---,0.00,VWS V14.01,2013-06-29 08:17:00,
2013-06-29 04:20:00,75.9,68.9,29.82,ESE,110,0.0,1.0,79,0.00,,---,0.00,VWS V14.01,2013-06-29 08:20:00,
2013-06-29 04:22:00,75.9,68.9,29.82,SSE,150,0.0,0.0,79,0.00,,---,0.00,VWS V14.01,2013-06-29 08:22:00,
2013-06-29 04:27:00,75.8,68.8,29.82,East,79,0.0,0.0,79,0.00,,---,0.00,VWS V14.01,2013-06-29 08:27:00,
2013-06-29 04:30:00,75.8,68.8,29.82,East,91,0.0,0.0,79,0.00,,---,0.00,VWS V14.01,2013-06-29 08:30:00,
2013-06-29 04:32:00,75.8,68.8,29.82,East,92,0.0,0.0,79,0.00,,---,0.00,VWS V14.01,2013-06-29 08:32:00,
2013-06-29 04:37:00,75.8,68.8,29.82,East,95,0.0,1.0,79,0.00,,---,0.00,VWS V14.01,2013-06-29 08:37:00,
2013-06-29 04:40:00,75.8,68.8,29.82,East,95,0.0,1.0,79,0.00,,---,0.00,VWS V14.01,2013-06-29 08:40:00,
2013-06-29 04:42:00,75.8,68.8,29.82,East,99,1.0,4.0,79,0.00,,---,0.00,VWS V14.01,2013-06-29 08:42:00,
2013-06-29 04:47:00,75.8,68.8,29.82,SW,214,0.0,4.0,79,0.00,,---,0.00,VWS V14.01,2013-06-29 08:47:00,
2013-06-29 04:50:00,75.8,68.8,29.82,NE,51,0.0,4.0,79,0.00,,---,0.00,VWS V14.01,2013-06-29 08:50:00,
2013-06-29 04:52:00,75.7,68.7,29.82,SW,217,0.0,3.0,79,0.00,,---,0.00,VWS V14.01,2013-06-29 08:52:00,
2013-06-29 04:57:00,75.7,68.7,29.82,SW,226,0.0,3.0,79,0.00,,---,0.00,VWS V14.01,2013-06-29 08:57:00,
2013-06-29 05:00:00,75.7,68.7,29.82,SW,228,0.0,3.0,79,0.00,,---,0.00,VWS V14.01,2013-06-29 09:00:00,
2013-06-29 05:02:00,75.7,68.7,29.82,NW,305,0.0,1.0,79,0.00,,---,0.00,VWS V14.01,2013-06-29 09:02:00,
2013-06-29 05:07:00,75.7,68.7,29.82,SW,233,0.0,1.0,79,0.00,,---,0.00,VWS V14.01,2013-06-29 09:07:00,
2013-06-29 05:10:00,75.7,68.7,29.82,SW,233,0.0,1.0,79,0.00,,---,0.00,VWS V14.01,2013-06-29 09:10:00,
2013-06-29 05:12:00,75.6,68.6,29.82,NNW,327,0.0,1.0,79,0.00,,---,0.00,VWS V14.01,2013-06-29 09:12:00,
2013-06-29 05:17:00,75.6,68.6,29.81,NE,53,1.0,2.0,79,0.00,,---,0.00,VWS V14.01,2013-06-29 09:17:00,
2013-06-29 05:20:00,75.6,68.6,29.81,North,9,0.0,2.0,79,0.00,,---,0.00,VWS V14.01,2013-06-29 09:20:00,
2013-06-29 05:22:00,75.6,68.6,29.81,SSE,162,0.0,2.0,79,0.00,,---,0.00,VWS V14.01,2013-06-29 09:22:00,
2013-06-29 05:27:00,75.6,68.6,29.82,SW,219,1.0,3.0,79,0.00,,---,0.00,VWS V14.01,2013-06-29 09:27:00,
2013-06-29 05:30:00,75.7,68.7,29.82,ESE,107,0.0,3.0,79,0.00,,---,0.00,VWS V14.01,2013-06-29 09:30:00,
2013-06-29 05:32:00,75.7,68.7,29.82,SSW,211,0.0,2.0,79,0.00,,---,0.00,VWS V14.01,2013-06-29 09:32:00,
2013-06-29 05:37:00,75.8,68.8,29.82,WSW,250,0.0,2.0,79,0.00,,---,0.00,VWS V14.01,2013-06-29 09:37:00,
2013-06-29 05:40:00,75.8,68.8,29.82,WSW,250,0.0,2.0,79,0.00,,---,0.00,VWS V14.01,2013-06-29 09:40:00,
2013-06-29 05:42:00,75.8,68.8,29.82,SW,235,1.0,2.0,79,0.00,,---,0.00,VWS V14.01,2013-06-29 09:42:00,
2013-06-29 05:47:00,75.8,68.8,29.82,SSW,192,0.0,2.0,79,0.00,,---,0.00,VWS V14.01,2013-06-29 09:47:00,
2013-06-29 05:50:00,75.8,68.8,29.82,South,191,0.0,2.0,79,0.00,,---,0.00,VWS V14.01,2013-06-29 09:50:00,
2013-06-29 05:52:00,75.7,68.7,29.82,SSW,193,0.0,0.0,79,0.00,,---,0.00,VWS V14.01,2013-06-29 09:52:00,
2013-06-29 05:57:00,75.8,68.8,29.82,NNE,17,0.0,1.0,79,0.00,,---,0.00,VWS V14.01,2013-06-29 09:57:00,
2013-06-29 06:00:00,75.8,68.8,29.82,NNE,17,0.0,1.0,79,0.00,,---,0.00,VWS V14.01,2013-06-29 10:00:00,
2013-06-29 06:02:00,75.8,68.8,29.82,NNE,23,0.0,0.0,79,0.00,,---,0.00,VWS V14.01,2013-06-29 10:02:00,
2013-06-29 06:07:00,75.8,68.8,29.82,South,179,0.0,1.0,79,0.00,,---,0.00,VWS V14.01,2013-06-29 10:07:00,
2013-06-29 06:10:00,75.8,68.8,29.82,South,173,0.0,1.0,79,0.00,,---,0.00,VWS V14.01,2013-06-29 10:10:00,
2013-06-29 06:12:00,75.7,68.7,29.82,South,177,0.0,1.0,79,0.00,,---,0.00,VWS V14.01,2013-06-29 10:12:00,
2013-06-29 06:17:00,75.7,68.7,29.82,East,96,0.0,1.0,79,0.00,,---,0.00,VWS V14.01,2013-06-29 10:17:00,
2013-06-29 06:20:00,75.7,68.7,29.82,East,96,0.0,1.0,79,0.00,,---,0.00,VWS V14.01,2013-06-29 10:20:00,
2013-06-29 06:22:00,75.7,68.7,29.82,East,94,0.0,0.0,79,0.00,,---,0.00,VWS V14.01,2013-06-29 10:22:00,
2013-06-29 06:27:00,75.7,68.7,29.82,East,83,0.0,1.0,79,0.00,,---,0.00,VWS V14.01,2013-06-29 10:27:00,
2013-06-29 06:30:00,75.7,68.7,29.82,SSW,210,0.0,1.0,79,0.00,,---,0.00,VWS V14.01,2013-06-29 10:30:00,
2013-06-29 06:32:00,75.7,68.7,29.82,South,189,0.0,1.0,79,0.00,,---,0.00,VWS V14.01,2013-06-29 10:32:00,
2013-06-29 06:37:00,75.7,68.7,29.83,South,188,0.0,1.0,79,0.00,,---,0.00,VWS V14.01,2013-06-29 10:37:00,
2013-06-29 06:40:00,75.6,68.6,29.83,South,189,0.0,1.0,79,0.00,,---,0.00,VWS V14.01,2013-06-29 10:40:00,
2013-06-29 06:42:00,75.5,68.5,29.83,South,189,0.0,0.0,79,0.00,,---,0.00,VWS V14.01,2013-06-29 10:42:00,
2013-06-29 06:47:00,75.5,68.5,29.83,South,188,0.0,0.0,79,0.00,,---,0.00,VWS V14.01,2013-06-29 10:47:00,
2013-06-29 06:50:00,75.5,68.5,29.83,South,179,0.0,0.0,79,0.00,,---,0.00,VWS V14.01,2013-06-29 10:50:00,
2013-06-29 06:52:00,75.4,68.4,29.83,South,172,0.0,0.0,79,0.00,,---,0.00,VWS V14.01,2013-06-29 10:52:00,
2013-06-29 06:57:00,75.5,68.5,29.83,ESE,108,0.0,1.0,79,0.00,,---,0.00,VWS V14.01,2013-06-29 10:57:00,
2013-06-29 07:00:00,75.5,68.5,29.83,ESE,108,0.0,1.0,79,0.00,,---,0.00,VWS V14.01,2013-06-29 11:00:00,
2013-06-29 07:02:00,75.6,68.6,29.83,ENE,78,0.0,0.0,79,0.00,,---,0.00,VWS V14.01,2013-06-29 11:02:00,
2013-06-29 07:07:00,75.7,68.7,29.83,East,83,1.0,1.0,79,0.00,,---,0.00,VWS V14.01,2013-06-29 11:07:00,
2013-06-29 07:10:00,75.7,68.7,29.83,East,79,0.0,1.0,79,0.00,,---,0.00,VWS V14.01,2013-06-29 11:10:00,
2013-06-29 07:12:00,75.8,68.8,29.83,East,79,0.0,1.0,79,0.00,,---,0.00,VWS V14.01,2013-06-29 11:12:00,
2013-06-29 07:17:00,76.0,69.0,29.83,SE,124,0.0,1.0,79,0.00,,---,0.00,VWS V14.01,2013-06-29 11:17:00,
2013-06-29 07:20:00,76.1,69.1,29.83,SE,124,0.0,1.0,79,0.00,,---,0.00,VWS V14.01,2013-06-29 11:20:00,
2013-06-29 07:22:00,76.3,69.3,29.83,ESE,121,0.0,0.0,79,0.00,,---,0.00,VWS V14.01,2013-06-29 11:22:00,
2013-06-29 07:27:00,76.6,69.6,29.84,ESE,122,0.0,0.0,79,0.00,,---,0.00,VWS V14.01,2013-06-29 11:27:00,
2013-06-29 07:30:00,76.7,69.7,29.84,ESE,122,0.0,0.0,79,0.00,,---,0.00,VWS V14.01,2013-06-29 11:30:00,
2013-06-29 07:32:00,76.8,69.8,29.84,ESE,116,0.0,0.0,79,0.00,,---,0.00,VWS V14.01,2013-06-29 11:32:00,
2013-06-29 07:37:00,77.2,70.6,29.84,ENE,64,0.0,1.0,80,0.00,,---,0.00,VWS V14.01,2013-06-29 11:37:00,
2013-06-29 07:40:00,77.2,70.6,29.84,ENE,64,0.0,1.0,80,0.00,,---,0.00,VWS V14.01,2013-06-29 11:40:00,
2013-06-29 07:42:00,77.3,70.7,29.84,NW,309,0.0,0.0,80,0.00,,---,0.00,VWS V14.01,2013-06-29 11:42:00,
2013-06-29 07:47:00,77.5,70.8,29.84,West,278,0.0,0.0,80,0.00,,---,0.00,VWS V14.01,2013-06-29 11:47:00,
2013-06-29 07:50:00,77.6,70.9,29.84,West,278,0.0,0.0,80,0.00,,---,0.00,VWS V14.01,2013-06-29 11:50:00,
2013-06-29 07:52:00,77.7,71.0,29.84,West,274,0.0,0.0,80,0.00,,---,0.00,VWS V14.01,2013-06-29 11:52:00,
2013-06-29 07:57:00,78.0,71.3,29.84,West,274,0.0,0.0,80,0.00,,---,0.00,VWS V14.01,2013-06-29 11:57:00,
2013-06-29 08:00:00,78.1,71.4,29.84,NW,326,0.0,0.0,80,0.00,,---,0.00,VWS V14.01,2013-06-29 12:00:00,
2013-06-29 08:02:00,78.4,71.7,29.84,East,94,0.0,0.0,80,0.00,,---,0.00,VWS V14.01,2013-06-29 12:02:00,
2013-06-29 08:07:00,78.7,72.4,29.84,East,85,0.0,0.0,81,0.00,,---,0.00,VWS V14.01,2013-06-29 12:07:00,
2013-06-29 08:10:00,78.8,72.5,29.84,East,100,0.0,0.0,81,0.00,,---,0.00,VWS V14.01,2013-06-29 12:10:00,
2013-06-29 08:12:00,79.3,73.0,29.84,East,100,0.0,0.0,81,0.00,,---,0.00,VWS V14.01,2013-06-29 12:12:00,
2013-06-29 08:17:00,79.9,73.6,29.84,East,84,0.0,0.0,81,0.00,,---,0.00,VWS V14.01,2013-06-29 12:17:00,
2013-06-29 08:20:00,80.1,73.8,29.84,East,84,0.0,0.0,81,0.00,,---,0.00,VWS V14.01,2013-06-29 12:20:00,
2013-06-29 08:22:00,80.5,74.1,29.84,NNE,19,0.0,0.0,81,0.00,,---,0.00,VWS V14.01,2013-06-29 12:22:00,
2013-06-29 08:27:00,81.1,74.7,29.84,East,101,0.0,2.0,81,0.00,,---,0.00,VWS V14.01,2013-06-29 12:27:00,
2013-06-29 08:30:00,81.2,74.8,29.84,WSW,245,0.0,2.0,81,0.00,,---,0.00,VWS V14.01,2013-06-29 12:30:00,
2013-06-29 08:32:00,81.3,74.9,29.84,North,9,1.0,3.0,81,0.00,,---,0.00,VWS V14.01,2013-06-29 12:32:00,
2013-06-29 08:37:00,81.4,75.0,29.84,SSW,201,0.0,4.0,81,0.00,,---,0.00,VWS V14.01,2013-06-29 12:37:00,
2013-06-29 08:40:00,81.4,75.0,29.84,West,263,0.0,4.0,81,0.00,,---,0.00,VWS V14.01,2013-06-29 12:40:00,
2013-06-29 08:42:00,81.4,75.0,29.84,NNW,333,0.0,0.0,81,0.00,,---,0.00,VWS V14.01,2013-06-29 12:42:00,
2013-06-29 08:47:00,81.3,74.9,29.84,SSW,211,0.0,2.0,81,0.00,,---,0.00,VWS V14.01,2013-06-29 12:47:00,
2013-06-29 08:50:00,81.4,75.0,29.84,East,84,1.0,2.0,81,0.00,,---,0.00,VWS V14.01,2013-06-29 12:50:00,
2013-06-29 08:52:00,81.6,75.2,29.84,NW,318,0.0,1.0,81,0.00,,---,0.00,VWS V14.01,2013-06-29 12:52:00,
2013-06-29 08:57:00,81.9,75.1,29.84,South,190,1.0,2.0,80,0.00,,---,0.00,VWS V14.01,2013-06-29 12:57:00,
2013-06-29 09:00:00,81.9,75.1,29.84,WNW,301,0.0,2.0,80,0.00,,---,0.00,VWS V14.01,2013-06-29 13:00:00,
2013-06-29 09:02:00,82.3,75.5,29.84,East,91,0.0,2.0,80,0.00,,---,0.00,VWS V14.01,2013-06-29 13:02:00,
2013-06-29 09:07:00,82.9,76.1,29.84,NNE,23,0.0,2.0,80,0.00,,---,0.00,VWS V14.01,2013-06-29 13:07:00,
2013-06-29 09:10:00,83.1,76.3,29.84,East,84,0.0,2.0,80,0.00,,---,0.00,VWS V14.01,2013-06-29 13:10:00,
2013-06-29 09:12:00,83.4,76.2,29.83,ESE,115,0.0,3.0,79,0.00,,---,0.00,VWS V14.01,2013-06-29 13:12:00,
2013-06-29 09:17:00,83.8,76.6,29.83,East,100,0.0,3.0,79,0.00,,---,0.00,VWS V14.01,2013-06-29 13:17:00,
2013-06-29 09:20:00,83.9,76.7,29.83,East,100,0.0,3.0,79,0.00,,---,0.00,VWS V14.01,2013-06-29 13:20:00,
2013-06-29 09:22:00,84.2,77.0,29.83,WNW,290,0.0,1.0,79,0.00,,---,0.00,VWS V14.01,2013-06-29 13:22:00,
2013-06-29 09:27:00,84.8,77.2,29.83,WNW,287,0.0,2.0,78,0.00,,---,0.00,VWS V14.01,2013-06-29 13:27:00,
2013-06-29 09:30:00,84.9,77.3,29.83,WNW,287,0.0,2.0,78,0.00,,---,0.00,VWS V14.01,2013-06-29 13:30:00,
2013-06-29 09:32:00,85.0,77.0,29.83,WNW,284,0.0,2.0,77,0.00,,---,0.00,VWS V14.01,2013-06-29 13:32:00,
2013-06-29 09:37:00,84.9,77.3,29.83,NE,50,0.0,3.0,78,0.00,,---,0.00,VWS V14.01,2013-06-29 13:37:00,
2013-06-29 09:40:00,85.0,77.0,29.83,NW,305,0.0,3.0,77,0.00,,---,0.00,VWS V14.01,2013-06-29 13:40:00,
2013-06-29 09:42:00,85.0,77.4,29.84,WSW,239,4.0,4.0,78,0.00,,---,0.00,VWS V14.01,2013-06-29 13:42:00,
2013-06-29 09:47:00,81.3,72.6,29.85,WNW,294,4.0,12.0,75,0.10,,---,0.11,VWS V14.01,2013-06-29 13:47:00,
2013-06-29 09:50:00,80.2,71.6,29.85,NNW,333,1.0,12.0,75,0.11,,---,0.11,VWS V14.01,2013-06-29 13:50:00,
2013-06-29 09:52:00,77.8,71.1,29.85,WNW,297,2.0,5.0,80,0.11,,---,0.11,VWS V14.01,2013-06-29 13:52:00,
2013-06-29 09:57:00,75.6,69.4,29.85,West,279,2.0,7.0,81,0.19,,---,0.19,VWS V14.01,2013-06-29 13:57:00,
2013-06-29 10:00:00,75.2,69.0,29.85,SSE,154,2.0,7.0,81,0.21,,---,0.21,VWS V14.01,2013-06-29 14:00:00,
2013-06-29 10:02:00,74.4,68.6,29.85,NNW,329,0.0,4.0,82,0.26,,---,0.26,VWS V14.01,2013-06-29 14:02:00,
2013-06-29 10:07:00,74.0,67.8,29.85,West,274,0.0,4.0,81,0.28,,---,0.28,VWS V14.01,2013-06-29 14:07:00,
2013-06-29 10:10:00,74.0,67.8,29.85,NNE,22,0.0,4.0,81,0.28,,---,0.28,VWS V14.01,2013-06-29 14:10:00,
2013-06-29 10:12:00,74.0,67.8,29.85,WNW,298,2.0,3.0,81,0.29,,---,0.29,VWS V14.01,2013-06-29 14:12:00,
2013-06-29 10:17:00,74.0,67.4,29.85,West,281,0.0,3.0,80,0.30,,---,0.30,VWS V14.01,2013-06-29 14:17:00,
2013-06-29 10:20:00,74.0,67.4,29.85,West,264,0.0,3.0,80,0.30,,---,0.30,VWS V14.01,2013-06-29 14:20:00,
2013-06-29 10:22:00,73.9,67.3,29.85,ESE,109,1.0,4.0,80,0.30,,---,0.30,VWS V14.01,2013-06-29 14:22:00,
2013-06-29 10:27:00,73.8,67.2,29.85,WSW,243,2.0,7.0,80,0.32,,---,0.32,VWS V14.01,2013-06-29 14:27:00,
2013-06-29 10:30:00,73.7,67.2,29.85,West,264,0.0,7.0,80,0.33,,---,0.33,VWS V14.01,2013-06-29 14:30:00,
2013-06-29 10:32:00,73.6,67.1,29.85,East,96,2.0,4.0,80,0.33,,---,0.33,VWS V14.01,2013-06-29 14:32:00,
2013-06-29 10:37:00,73.7,67.2,29.85,WSW,242,3.0,6.0,80,0.34,,---,0.34,VWS V14.01,2013-06-29 14:37:00,
2013-06-29 10:40:00,73.7,67.2,29.85,SW,233,1.0,6.0,80,0.34,,---,0.34,VWS V14.01,2013-06-29 14:40:00,
2013-06-29 10:42:00,73.8,67.2,29.85,WNW,290,1.0,2.0,80,0.34,,---,0.34,VWS V14.01,2013-06-29 14:42:00,
2013-06-29 10:48:00,73.7,67.2,29.84,SSE,162,1.0,3.0,80,0.34,,---,0.34,VWS V14.01,2013-06-29 14:48:00,
2013-06-29 10:50:00,73.7,67.2,29.84,SSE,162,0.0,3.0,80,0.34,,---,0.34,VWS V14.01,2013-06-29 14:50:00,
2013-06-29 10:53:00,73.8,67.2,29.84,West,267,0.0,4.0,80,0.23,,---,0.34,VWS V14.01,2013-06-29 14:53:00,
2013-06-29 10:58:00,73.9,67.3,29.84,NNE,26,0.0,4.0,80,0.23,,---,0.34,VWS V14.01,2013-06-29 14:58:00,
2013-06-29 11:00:00,74.0,67.4,29.84,SW,217,0.0,4.0,80,0.23,,---,0.34,VWS V14.01,2013-06-29 15:00:00,
2013-06-29 11:03:00,74.0,67.4,29.84,WSW,250,0.0,0.0,80,0.14,,---,0.35,VWS V14.01,2013-06-29 15:03:00,
2013-06-29 11:08:00,74.2,67.6,29.84,West,281,0.0,0.0,80,0.14,,---,0.35,VWS V14.01,2013-06-29 15:08:00,
2013-06-29 11:10:00,74.2,67.6,29.84,West,281,0.0,0.0,80,0.14,,---,0.35,VWS V14.01,2013-06-29 15:10:00,
2013-06-29 11:13:00,74.5,67.9,29.84,West,264,0.0,0.0,80,0.07,,---,0.35,VWS V14.01,2013-06-29 15:13:00,
2013-06-29 11:18:00,74.9,67.9,29.84,West,267,1.0,2.0,79,0.08,,---,0.36,VWS V14.01,2013-06-29 15:18:00,
2013-06-29 11:20:00,74.9,68.3,29.84,WSW,256,0.0,2.0,80,0.08,,---,0.36,VWS V14.01,2013-06-29 15:20:00,
2013-06-29 11:23:00,75.2,68.2,29.84,WNW,300,1.0,1.0,79,0.06,,---,0.36,VWS V14.01,2013-06-29 15:23:00,
2013-06-29 11:28:00,75.6,69.0,29.84,West,270,0.0,3.0,80,0.06,,---,0.36,VWS V14.01,2013-06-29 15:28:00,
2013-06-29 11:30:00,75.6,69.0,29.84,West,269,0.0,3.0,80,0.06,,---,0.36,VWS V14.01,2013-06-29 15:30:00,
2013-06-29 11:33:00,76.1,69.5,29.85,SW,231,0.0,2.0,80,0.03,,---,0.36,VWS V14.01,2013-06-29 15:33:00,
2013-06-29 11:38:00,76.6,70.0,29.85,West,276,1.0,2.0,80,0.03,,---,0.36,VWS V14.01,2013-06-29 15:38:00,
2013-06-29 11:40:00,76.6,70.0,29.85,West,276,0.0,2.0,80,0.03,,---,0.36,VWS V14.01,2013-06-29 15:40:00,
2013-06-29 11:43:00,77.2,70.2,29.85,NNW,327,0.0,2.0,79,0.02,,---,0.36,VWS V14.01,2013-06-29 15:43:00,
2013-06-29 11:48:00,77.8,71.1,29.86,WSW,252,2.0,4.0,80,0.02,,---,0.36,VWS V14.01,2013-06-29 15:48:00,
2013-06-29 11:50:00,77.8,71.1,29.86,SW,222,0.0,4.0,80,0.02,,---,0.36,VWS V14.01,2013-06-29 15:50:00,
2013-06-29 11:53:00,78.3,71.6,29.86,WSW,252,0.0,5.0,80,0.02,,---,0.36,VWS V14.01,2013-06-29 15:53:00,
2013-06-29 11:58:00,78.8,72.5,29.86,West,281,0.0,5.0,81,0.02,,---,0.36,VWS V14.01,2013-06-29 15:58:00,
2013-06-29 12:00:00,78.8,72.5,29.86,West,281,0.0,5.0,81,0.02,,---,0.36,VWS V14.01,2013-06-29 16:00:00,
2013-06-29 12:03:00,79.3,73.0,29.85,West,273,1.0,3.0,81,0.02,,---,0.36,VWS V14.01,2013-06-29 16:03:00,
2013-06-29 12:08:00,79.4,73.1,29.85,WNW,295,0.0,3.0,81,0.02,,---,0.36,VWS V14.01,2013-06-29 16:08:00,
2013-06-29 12:10:00,79.4,73.1,29.85,WNW,295,0.0,3.0,81,0.02,,---,0.36,VWS V14.01,2013-06-29 16:10:00,
2013-06-29 12:13:00,79.3,73.0,29.86,West,269,1.0,3.0,81,0.01,,---,0.36,VWS V14.01,2013-06-29 16:13:00,
2013-06-29 12:18:00,79.1,72.8,29.86,West,273,0.0,3.0,81,0.03,,---,0.38,VWS V14.01,2013-06-29 16:18:00,
2013-06-29 12:20:00,79.1,72.8,29.86,West,273,0.0,3.0,81,0.03,,---,0.38,VWS V14.01,2013-06-29 16:20:00,
2013-06-29 12:23:00,78.7,72.4,29.86,WNW,298,0.0,6.0,81,0.07,,---,0.43,VWS V14.01,2013-06-29 16:23:00,
2013-06-29 12:28:00,78.0,71.7,29.85,WNW,293,2.0,6.0,81,0.08,,---,0.44,VWS V14.01,2013-06-29 16:28:00,
2013-06-29 12:30:00,77.9,71.6,29.85,WSW,250,2.0,6.0,81,0.08,,---,0.44,VWS V14.01,2013-06-29 16:30:00,
2013-06-29 12:33:00,77.7,71.0,29.85,West,262,3.0,3.0,80,0.09,,---,0.45,VWS V14.01,2013-06-29 16:33:00,
2013-06-29 12:38:00,77.7,71.0,29.85,West,271,1.0,3.0,80,0.09,,---,0.45,VWS V14.01,2013-06-29 16:38:00,
2013-06-29 12:40:00,77.7,71.0,29.85,WSW,256,0.0,3.0,80,0.09,,---,0.45,VWS V14.01,2013-06-29 16:40:00,
2013-06-29 12:43:00,78.0,71.3,29.85,WSW,242,0.0,1.0,80,0.09,,---,0.45,VWS V14.01,2013-06-29 16:43:00,
2013-06-29 12:48:00,78.0,71.3,29.85,SW,218,0.0,1.0,80,0.09,,---,0.45,VWS V14.01,2013-06-29 16:48:00,
2013-06-29 12:50:00,78.0,71.3,29.85,SW,219,0.0,1.0,80,0.09,,---,0.45,VWS V14.01,2013-06-29 16:50:00,
2013-06-29 12:53:00,77.9,71.6,29.85,WNW,284,0.0,1.0,81,0.09,,---,0.45,VWS V14.01,2013-06-29 16:53:00,
2013-06-29 12:58:00,78.0,71.7,29.85,WNW,284,0.0,1.0,81,0.10,,---,0.46,VWS V14.01,2013-06-29 16:58:00,
2013-06-29 13:00:00,78.1,71.8,29.85,WNW,284,0.0,1.0,81,0.10,,---,0.46,VWS V14.01,2013-06-29 17:00:00,
2013-06-29 13:03:00,78.1,71.8,29.85,WSW,249,1.0,3.0,81,0.11,,---,0.47,VWS V14.01,2013-06-29 17:03:00,
2013-06-29 13:08:00,77.9,71.6,29.85,WNW,283,0.0,3.0,81,0.12,,---,0.48,VWS V14.01,2013-06-29 17:08:00,
2013-06-29 13:10:00,77.9,71.6,29.85,WNW,283,0.0,3.0,81,0.12,,---,0.48,VWS V14.01,2013-06-29 17:10:00,
2013-06-29 13:13:00,77.4,71.1,29.84,WNW,297,1.0,3.0,81,0.15,,---,0.51,VWS V14.01,2013-06-29 17:13:00,
2013-06-29 13:18:00,76.9,70.6,29.83,SW,231,0.0,3.0,81,0.16,,---,0.52,VWS V14.01,2013-06-29 17:18:00,
2013-06-29 13:20:00,76.9,70.6,29.83,WSW,248,0.0,3.0,81,0.16,,---,0.52,VWS V14.01,2013-06-29 17:20:00,
2013-06-29 13:23:00,76.3,70.1,29.83,West,277,0.0,1.0,81,0.14,,---,0.52,VWS V14.01,2013-06-29 17:23:00,
2013-06-29 13:28:00,76.1,69.8,29.83,WNW,283,0.0,1.0,81,0.14,,---,0.52,VWS V14.01,2013-06-29 17:28:00,
2013-06-29 13:30:00,76.1,69.8,29.83,WNW,282,0.0,1.0,81,0.14,,---,0.52,VWS V14.01,2013-06-29 17:30:00,
2013-06-29 13:33:00,76.1,69.8,29.83,WNW,286,0.0,0.0,81,0.08,,---,0.52,VWS V14.01,2013-06-29 17:33:00,
2013-06-29 13:38:00,76.4,69.8,29.83,WNW,290,0.0,0.0,80,0.09,,---,0.53,VWS V14.01,2013-06-29 17:38:00,
2013-06-29 13:40:00,76.4,69.8,29.83,WNW,290,0.0,0.0,80,0.09,,---,0.53,VWS V14.01,2013-06-29 17:40:00,
2013-06-29 13:43:00,77.1,70.5,29.83,West,266,0.0,0.0,80,0.08,,---,0.53,VWS V14.01,2013-06-29 17:43:00,
2013-06-29 13:48:00,77.6,70.9,29.83,NW,318,0.0,1.0,80,0.08,,---,0.53,VWS V14.01,2013-06-29 17:48:00,
2013-06-29 13:50:00,77.6,70.9,29.83,NW,318,0.0,1.0,80,0.08,,---,0.53,VWS V14.01,2013-06-29 17:50:00,
2013-06-29 13:53:00,78.3,71.6,29.83,SE,132,0.0,3.0,80,0.08,,---,0.53,VWS V14.01,2013-06-29 17:53:00,
2013-06-29 13:58:00,78.8,72.5,29.82,NW,318,0.0,3.0,81,0.08,,---,0.53,VWS V14.01,2013-06-29 17:58:00,
2013-06-29 14:00:00,78.8,72.5,29.82,NW,318,0.0,3.0,81,0.08,,---,0.53,VWS V14.01,2013-06-29 18:00:00,
2013-06-29 14:03:00,79.4,73.1,29.82,WNW,284,0.0,1.0,81,0.07,,---,0.53,VWS V14.01,2013-06-29 18:03:00,
2013-06-29 14:08:00,79.9,73.6,29.82,West,271,0.0,2.0,81,0.07,,---,0.53,VWS V14.01,2013-06-29 18:08:00,
2013-06-29 14:10:00,79.9,73.6,29.82,West,271,0.0,2.0,81,0.07,,---,0.53,VWS V14.01,2013-06-29 18:10:00,
2013-06-29 14:13:00,80.6,74.2,29.82,West,274,0.0,3.0,81,0.05,,---,0.53,VWS V14.01,2013-06-29 18:13:00,
2013-06-29 14:18:00,81.6,75.2,29.82,WSW,255,1.0,3.0,81,0.05,,---,0.53,VWS V14.01,2013-06-29 18:18:00,
2013-06-29 14:20:00,81.6,75.2,29.82,WSW,256,1.0,3.0,81,0.05,,---,0.53,VWS V14.01,2013-06-29 18:20:00,
2013-06-29 14:23:00,82.6,75.8,29.82,West,273,0.0,3.0,80,0.01,,---,0.53,VWS V14.01,2013-06-29 18:23:00,
2013-06-29 14:28:00,83.4,76.2,29.82,WNW,283,0.0,3.0,79,0.01,,---,0.53,VWS V14.01,2013-06-29 18:28:00,
2013-06-29 14:30:00,83.4,76.2,29.82,WNW,283,0.0,3.0,79,0.01,,---,0.53,VWS V14.01,2013-06-29 18:30:00,
2013-06-29 14:33:00,84.2,76.2,29.81,SSW,212,3.0,4.0,77,0.01,,---,0.53,VWS V14.01,2013-06-29 18:33:00,
2013-06-29 14:38:00,85.4,77.4,29.81,West,273,0.0,4.0,77,0.01,,---,0.53,VWS V14.01,2013-06-29 18:38:00,
2013-06-29 14:40:00,85.4,77.4,29.81,West,273,0.0,4.0,77,0.01,,---,0.53,VWS V14.01,2013-06-29 18:40:00,
2013-06-29 14:43:00,86.7,78.2,29.80,SSE,155,1.0,2.0,76,0.00,,---,0.53,VWS V14.01,2013-06-29 18:43:00,
2013-06-29 14:48:00,87.4,77.3,29.80,West,274,5.0,5.0,72,0.00,,---,0.53,VWS V14.01,2013-06-29 18:48:00,
2013-06-29 14:50:00,87.4,77.3,29.80,West,274,5.0,5.0,72,0.00,,---,0.53,VWS V14.01,2013-06-29 18:50:00,
2013-06-29 14:53:00,87.0,77.7,29.80,WSW,255,2.0,5.0,74,0.00,,---,0.53,VWS V14.01,2013-06-29 18:53:00,
2013-06-29 14:58:00,87.1,77.4,29.80,WNW,284,1.0,5.0,73,0.00,,---,0.53,VWS V14.01,2013-06-29 18:58:00,
2013-06-29 15:00:00,87.1,77.4,29.80,WNW,283,1.0,5.0,73,0.00,,---,0.53,VWS V14.01,2013-06-29 19:00:00,
2013-06-29 15:03:00,87.0,77.3,29.80,WSW,252,1.0,4.0,73,0.00,,---,0.53,VWS V14.01,2013-06-29 19:03:00,
2013-06-29 15:08:00,86.6,77.3,29.80,WSW,253,3.0,3.0,74,0.00,,---,0.53,VWS V14.01,2013-06-29 19:08:00,
2013-06-29 15:10:00,86.6,77.3,29.80,West,259,1.0,5.0,74,0.00,,---,0.53,VWS V14.01,2013-06-29 19:10:00,
2013-06-29 15:13:00,86.2,76.9,29.79,WSW,252,1.0,4.0,74,0.00,,---,0.53,VWS V14.01,2013-06-29 19:13:00,
2013-06-29 15:18:00,86.0,77.2,29.79,West,273,1.0,1.0,75,0.00,,---,0.53,VWS V14.01,2013-06-29 19:18:00,
2013-06-29 15:20:00,86.0,77.2,29.79,West,273,0.0,6.0,75,0.00,,---,0.53,VWS V14.01,2013-06-29 19:20:00,
2013-06-29 15:23:00,86.2,76.9,29.79,WNW,293,2.0,4.0,74,0.00,,---,0.53,VWS V14.01,2013-06-29 19:23:00,
2013-06-29 15:28:00,86.6,77.3,29.79,NW,307,1.0,1.0,74,0.00,,---,0.53,VWS V14.01,2013-06-29 19:28:00,
2013-06-29 15:30:00,86.6,77.3,29.79,NW,307,1.0,4.0,74,0.00,,---,0.53,VWS V14.01,2013-06-29 19:30:00,
2013-06-29 15:33:00,87.4,77.7,29.79,WNW,301,2.0,3.0,73,0.00,,---,0.53,VWS V14.01,2013-06-29 19:33:00,
2013-06-29 15:38:00,87.9,76.9,29.78,WNW,298,3.0,3.0,70,0.00,,---,0.53,VWS V14.01,2013-06-29 19:38:00,
2013-06-29 15:40:00,87.9,76.9,29.78,SW,233,3.0,7.0,70,0.00,,---,0.53,VWS V14.01,2013-06-29 19:40:00,
2013-06-29 15:44:00,87.6,77.5,29.79,WSW,246,4.0,7.0,72,0.00,,---,0.53,VWS V14.01,2013-06-29 19:44:00,
2013-06-29 15:49:00,87.2,76.7,29.79,NW,307,2.0,2.0,71,0.00,,---,0.53,VWS V14.01,2013-06-29 19:49:00,
2013-06-29 15:50:00,87.2,76.7,29.79,NNW,327,1.0,7.0,71,0.00,,---,0.53,VWS V14.01,2013-06-29 19:50:00,
2013-06-29 15:54:00,87.5,77.8,29.78,West,263,2.0,6.0,73,0.00,,---,0.53,VWS V14.01,2013-06-29 19:54:00,
2013-06-29 15:59:00,87.9,77.3,29.78,SW,219,2.0,2.0,71,0.00,,---,0.53,VWS V14.01,2013-06-29 19:59:00,
2013-06-29 16:00:00,87.9,77.3,29.79,NW,318,1.0,7.0,71,0.00,,---,0.53,VWS V14.01,2013-06-29 20:00:00,
2013-06-29 16:04:00,88.3,77.3,29.79,WNW,284,3.0,5.0,70,0.00,,---,0.53,VWS V14.01,2013-06-29 20:04:00,
2013-06-29 16:09:00,88.9,77.0,29.79,West,276,2.0,2.0,68,0.00,,---,0.53,VWS V14.01,2013-06-29 20:09:00,
2013-06-29 16:10:00,88.8,76.9,29.79,West,276,2.0,6.0,68,0.00,,---,0.53,VWS V14.01,2013-06-29 20:10:00,
2013-06-29 16:14:00,89.4,77.0,29.78,ENE,58,0.0,6.0,67,0.00,,---,0.53,VWS V14.01,2013-06-29 20:14:00,
2013-06-29 16:19:00,89.6,76.3,29.78,West,264,3.0,6.0,65,0.00,,---,0.53,VWS V14.01,2013-06-29 20:19:00,
2013-06-29 16:20:00,89.6,76.3,29.78,West,259,2.0,7.0,65,0.00,,---,0.53,VWS V14.01,2013-06-29 20:20:00,
2013-06-29 16:24:00,89.8,77.4,29.78,NW,305,1.0,6.0,67,0.00,,---,0.53,VWS V14.01,2013-06-29 20:24:00,
2013-06-29 16:29:00,89.6,76.7,29.78,WNW,297,2.0,3.0,66,0.00,,---,0.53,VWS V14.01,2013-06-29 20:29:00,
2013-06-29 16:30:00,89.6,76.7,29.78,WNW,295,2.0,6.0,66,0.00,,---,0.53,VWS V14.01,2013-06-29 20:30:00,
2013-06-29 16:34:00,89.7,76.4,29.78,West,264,3.0,5.0,65,0.00,,---,0.53,VWS V14.01,2013-06-29 20:34:00,
2013-06-29 16:39:00,89.5,76.2,29.77,WSW,257,1.0,4.0,65,0.00,,---,0.53,VWS V14.01,2013-06-29 20:39:00,
2013-06-29 16:40:00,89.5,76.2,29.77,NW,310,4.0,8.0,65,0.00,,---,0.53,VWS V14.01,2013-06-29 20:40:00,
2013-06-29 16:44:00,88.7,76.3,29.78,WNW,287,2.0,5.0,67,0.00,,---,0.53,VWS V14.01,2013-06-29 20:44:00,
2013-06-29 16:49:00,88.3,76.4,29.78,West,269,2.0,3.0,68,0.00,,---,0.53,VWS V14.01,2013-06-29 20:49:00,
2013-06-29 16:50:00,88.3,76.8,29.78,WNW,288,2.0,5.0,69,0.00,,---,0.53,VWS V14.01,2013-06-29 20:50:00,
2013-06-29 16:54:00,88.4,76.9,29.78,West,270,2.0,5.0,69,0.00,,---,0.53,VWS V14.01,2013-06-29 20:54:00,
2013-06-29 16:59:00,89.0,76.6,29.78,WSW,245,1.0,3.0,67,0.00,,---,0.53,VWS V14.01,2013-06-29 20:59:00,
2013-06-29 17:00:00,88.9,76.5,29.78,West,259,3.0,7.0,67,0.00,,---,0.53,VWS V14.01,2013-06-29 21:00:00,
2013-06-29 17:04:00,88.3,76.0,29.78,WNW,292,3.0,7.0,67,0.00,,---,0.53,VWS V14.01,2013-06-29 21:04:00,
2013-06-29 17:09:00,87.9,74.7,29.78,NW,304,2.0,4.0,65,0.00,,---,0.53,VWS V14.01,2013-06-29 21:09:00,
2013-06-29 17:10:00,87.9,75.6,29.78,West,259,2.0,7.0,67,0.00,,---,0.53,VWS V14.01,2013-06-29 21:10:00,
2013-06-29 17:14:00,88.0,73.8,29.78,WNW,290,1.0,4.0,63,0.00,,---,0.53,VWS V14.01,2013-06-29 21:14:00,
2013-06-29 17:19:00,87.8,75.0,29.78,WNW,290,2.0,3.0,66,0.00,,---,0.53,VWS V14.01,2013-06-29 21:19:00,
2013-06-29 17:20:00,87.8,74.6,29.78,NW,308,1.0,3.0,65,0.00,,---,0.53,VWS V14.01,2013-06-29 21:20:00,
2013-06-29 17:25:00,87.7,74.5,29.78,South,186,2.0,5.0,65,0.00,,---,0.53,VWS V14.01,2013-06-29 21:25:00,
2013-06-29 17:30:00,87.3,73.6,29.78,SW,217,3.0,3.0,64,0.00,,---,0.53,VWS V14.01,2013-06-29 21:30:00,
2013-06-29 17:35:00,86.7,73.5,29.78,WNW,285,2.0,6.0,65,0.00,,---,0.53,VWS V14.01,2013-06-29 21:35:00,
2013-06-29 17:40:00,86.7,73.1,29.78,WSW,257,2.0,4.0,64,0.00,,---,0.53,VWS V14.01,2013-06-29 21:40:00,
2013-06-29 17:45:00,86.7,73.1,29.77,WNW,285,3.0,5.0,64,0.00,,---,0.53,VWS V14.01,2013-06-29 21:45:00,
2013-06-29 17:50:00,87.0,74.3,29.78,West,264,1.0,2.0,66,0.00,,---,0.53,VWS V14.01,2013-06-29 21:50:00,
2013-06-29 17:55:00,87.2,74.0,29.78,West,268,1.0,3.0,65,0.00,,---,0.53,VWS V14.01,2013-06-29 21:55:00,
2013-06-29 18:00:00,87.3,74.6,29.78,SW,233,2.0,2.0,66,0.00,,---,0.53,VWS V14.01,2013-06-29 22:00:00,
2013-06-29 18:05:00,87.3,74.6,29.78,WSW,245,1.0,4.0,66,0.00,,---,0.53,VWS V14.01,2013-06-29 22:05:00,
2013-06-29 18:10:00,87.3,74.1,29.78,SW,222,1.0,4.0,65,0.00,,---,0.53,VWS V14.01,2013-06-29 22:10:00,
2013-06-29 18:15:00,87.4,74.7,29.78,ENE,68,1.0,5.0,66,0.00,,---,0.53,VWS V14.01,2013-06-29 22:15:00,
2013-06-29 18:20:00,87.5,74.8,29.78,NW,312,1.0,4.0,66,0.00,,---,0.53,VWS V14.01,2013-06-29 22:20:00,
2013-06-29 18:25:00,87.3,74.1,29.78,WSW,252,2.0,4.0,65,0.00,,---,0.53,VWS V14.01,2013-06-29 22:25:00,
2013-06-29 18:30:00,87.1,74.4,29.78,West,275,0.0,2.0,66,0.00,,---,0.53,VWS V14.01,2013-06-29 22:30:00,
2013-06-29 18:35:00,87.0,74.3,29.77,WNW,288,1.0,3.0,66,0.00,,---,0.53,VWS V14.01,2013-06-29 22:35:00,
2013-06-29 18:40:00,87.4,74.7,29.77,WSW,243,0.0,1.0,66,0.00,,---,0.53,VWS V14.01,2013-06-29 22:40:00,
2013-06-29 18:45:00,87.7,74.0,29.77,NNE,33,2.0,3.0,64,0.00,,---,0.53,VWS V14.01,2013-06-29 22:45:00,
2013-06-29 18:50:00,87.5,74.3,29.77,West,274,0.0,1.0,65,0.00,,---,0.53,VWS V14.01,2013-06-29 22:50:00,
2013-06-29 18:55:00,87.6,73.9,29.77,WSW,246,1.0,2.0,64,0.00,,---,0.53,VWS V14.01,2013-06-29 22:55:00,
2013-06-29 19:00:00,86.8,73.6,29.77,WNW,297,1.0,3.0,65,0.00,,---,0.53,VWS V14.01,2013-06-29 23:00:00,
2013-06-29 19:05:00,86.1,73.9,29.78,WNW,294,1.0,3.0,67,0.00,,---,0.53,VWS V14.01,2013-06-29 23:05:00,
2013-06-29 19:10:00,85.8,74.0,29.78,West,269,0.0,1.0,68,0.00,,---,0.53,VWS V14.01,2013-06-29 23:10:00,
2013-06-29 19:15:00,86.2,74.4,29.78,North,353,0.0,2.0,68,0.00,,---,0.53,VWS V14.01,2013-06-29 23:15:00,
2013-06-29 19:20:00,86.2,74.0,29.78,East,96,0.0,1.0,67,0.00,,---,0.53,VWS V14.01,2013-06-29 23:20:00,
2013-06-29 19:25:00,85.9,74.1,29.78,NE,34,0.0,3.0,68,0.00,,---,0.53,VWS V14.01,2013-06-29 23:25:00,
2013-06-29 19:30:00,85.7,74.4,29.78,West,270,0.0,2.0,69,0.00,,---,0.53,VWS V14.01,2013-06-29 23:30:00,
2013-06-29 19:35:00,85.2,74.3,29.78,WNW,282,1.0,3.0,70,0.00,,---,0.53,VWS V14.01,2013-06-29 23:35:00,
2013-06-29 19:40:00,84.8,74.4,29.78,East,91,2.0,2.0,71,0.00,,---,0.53,VWS V14.01,2013-06-29 23:40:00,
2013-06-29 19:45:00,84.3,74.3,29.78,ENE,75,0.0,3.0,72,0.00,,---,0.53,VWS V14.01,2013-06-29 23:45:00,
2013-06-29 19:50:00,83.8,74.2,29.79,West,281,1.0,1.0,73,0.00,,---,0.53,VWS V14.01,2013-06-29 23:50:00,
2013-06-29 19:55:00,83.5,74.3,29.79,North,11,1.0,4.0,74,0.00,,---,0.53,VWS V14.01,2013-06-29 23:55:00,
2013-06-29 20:00:00,83.2,74.5,29.79,ENE,72,1.0,2.0,75,0.00,,---,0.53,VWS V14.01,2013-06-30 00:00:00,
2013-06-29 20:05:00,82.7,74.4,29.79,East,91,1.0,3.0,76,0.00,,---,0.53,VWS V14.01,2013-06-30 00:05:00,
2013-06-29 20:10:00,82.3,74.0,29.79,ENE,76,0.0,1.0,76,0.00,,---,0.53,VWS V14.01,2013-06-30 00:10:00,
2013-06-29 20:15:00,82.0,73.7,29.79,ENE,64,0.0,1.0,76,0.00,,---,0.53,VWS V14.01,2013-06-30 00:15:00,
2013-06-29 20:20:00,81.6,73.7,29.79,ESE,102,1.0,3.0,77,0.00,,---,0.53,VWS V14.01,2013-06-30 00:20:00,
2013-06-29 20:25:00,81.2,73.3,29.79,NE,54,1.0,4.0,77,0.00,,---,0.53,VWS V14.01,2013-06-30 00:25:00,
2013-06-29 20:30:00,80.9,73.4,29.79,NE,40,0.0,1.0,78,0.00,,---,0.53,VWS V14.01,2013-06-30 00:30:00,
2013-06-29 20:35:00,80.5,73.4,29.80,ENE,76,0.0,1.0,79,0.00,,---,0.53,VWS V14.01,2013-06-30 00:35:00,
2013-06-29 20:40:00,80.2,73.1,29.80,NE,49,0.0,1.0,79,0.00,,---,0.53,VWS V14.01,2013-06-30 00:40:00,
2013-06-29 20:45:00,79.9,72.8,29.80,East,83,0.0,2.0,79,0.00,,---,0.53,VWS V14.01,2013-06-30 00:45:00,
2013-06-29 20:50:00,79.6,72.9,29.81,East,96,1.0,1.0,80,0.00,,---,0.53,VWS V14.01,2013-06-30 00:50:00,
2013-06-29 20:55:00,79.4,72.7,29.80,NNE,32,0.0,1.0,80,0.00,,---,0.53,VWS V14.01,2013-06-30 00:55:00,
2013-06-29 21:00:00,79.1,72.4,29.80,ENE,70,0.0,2.0,80,0.00,,---,0.53,VWS V14.01,2013-06-30 01:00:00,
2013-06-29 21:05:00,78.9,72.2,29.80,ENE,71,0.0,2.0,80,0.00,,---,0.53,VWS V14.01,2013-06-30 01:05:00,
2013-06-29 21:10:00,78.7,72.0,29.81,NE,48,0.0,1.0,80,0.00,,---,0.53,VWS V14.01,2013-06-30 01:10:00,
2013-06-29 21:15:00,78.5,71.8,29.81,NE,50,1.0,2.0,80,0.00,,---,0.53,VWS V14.01,2013-06-30 01:15:00,
2013-06-29 21:20:00,78.4,72.1,29.81,NNE,33,0.0,1.0,81,0.00,,---,0.53,VWS V14.01,2013-06-30 01:20:00,
2013-06-29 21:25:00,78.2,71.9,29.81,East,94,0.0,3.0,81,0.00,,---,0.53,VWS V14.01,2013-06-30 01:25:00,
2013-06-29 21:30:00,78.0,71.7,29.81,East,96,2.0,2.0,81,0.00,,---,0.53,VWS V14.01,2013-06-30 01:30:00,
2013-06-29 21:35:00,77.9,71.6,29.81,East,87,1.0,2.0,81,0.00,,---,0.53,VWS V14.01,2013-06-30 01:35:00,
2013-06-29 21:40:00,77.7,71.4,29.81,ESE,104,0.0,0.0,81,0.00,,---,0.53,VWS V14.01,2013-06-30 01:40:00,
2013-06-29 21:45:00,77.6,71.3,29.81,ENE,72,0.0,3.0,81,0.00,,---,0.53,VWS V14.01,2013-06-30 01:45:00,
2013-06-29 21:50:00,77.5,71.2,29.81,NNE,16,0.0,3.0,81,0.00,,---,0.53,VWS V14.01,2013-06-30 01:50:00,
2013-06-29 21:55:00,77.3,71.0,29.81,ENE,66,1.0,4.0,81,0.00,,---,0.53,VWS V14.01,2013-06-30 01:55:00,
2013-06-29 22:00:00,77.2,70.9,29.81,East,100,3.0,3.0,81,0.00,,---,0.53,VWS V14.01,2013-06-30 02:00:00,
2013-06-29 22:05:00,77.1,70.8,29.81,ENE,58,1.0,5.0,81,0.00,,---,0.53,VWS V14.01,2013-06-30 02:05:00,
2013-06-29 22:10:00,77.0,70.7,29.82,ENE,76,1.0,2.0,81,0.00,,---,0.53,VWS V14.01,2013-06-30 02:10:00,
2013-06-29 22:15:00,76.9,70.6,29.81,North,352,1.0,2.0,81,0.00,,---,0.53,VWS V14.01,2013-06-30 02:15:00,
2013-06-29 22:20:00,76.8,70.5,29.82,SW,234,1.0,2.0,81,0.00,,---,0.53,VWS V14.01,2013-06-30 02:20:00,
2013-06-29 22:25:00,76.7,70.1,29.82,ENE,77,0.0,3.0,80,0.00,,---,0.53,VWS V14.01,2013-06-30 02:25:00,
2013-06-29 22:30:00,76.6,70.0,29.83,North,11,0.0,1.0,80,0.00,,---,0.53,VWS V14.01,2013-06-30 02:30:00,
2013-06-29 22:35:00,76.6,70.0,29.83,West,270,0.0,2.0,80,0.00,,---,0.53,VWS V14.01,2013-06-30 02:35:00,
2013-06-29 22:40:00,76.5,69.9,29.83,SSE,160,0.0,2.0,80,0.00,,---,0.53,VWS V14.01,2013-06-30 02:40:00,
2013-06-29 22:45:00,76.4,69.8,29.83,SSE,153,0.0,2.0,80,0.00,,---,0.53,VWS V14.01,2013-06-30 02:45:00,
2013-06-29 22:50:00,76.4,69.8,29.83,West,262,1.0,2.0,80,0.00,,---,0.53,VWS V14.01,2013-06-30 02:50:00,
2013-06-29 22:55:00,76.4,69.4,29.83,NW,322,1.0,3.0,79,0.00,,---,0.53,VWS V14.01,2013-06-30 02:55:00,
2013-06-29 23:00:00,76.4,69.4,29.83,East,96,0.0,2.0,79,0.00,,---,0.53,VWS V14.01,2013-06-30 03:00:00,
2013-06-29 23:05:00,76.3,69.3,29.83,ESE,113,0.0,2.0,79,0.00,,---,0.53,VWS V14.01,2013-06-30 03:05:00,
2013-06-29 23:10:00,76.3,69.3,29.83,East,83,0.0,2.0,79,0.00,,---,0.53,VWS V14.01,2013-06-30 03:10:00,
2013-06-29 23:15:00,76.2,69.2,29.83,ENE,71,0.0,3.0,79,0.00,,---,0.53,VWS V14.01,2013-06-30 03:15:00,
2013-06-29 23:20:00,76.2,69.2,29.83,ESE,110,1.0,1.0,79,0.00,,---,0.53,VWS V14.01,2013-06-30 03:20:00,
2013-06-29 23:25:00,76.2,69.2,29.83,ENE,65,0.0,3.0,79,0.00,,---,0.53,VWS V14.01,2013-06-30 03:25:00,
2013-06-29 23:30:00,76.1,69.1,29.83,NNE,28,0.0,1.0,79,0.00,,---,0.53,VWS V14.01,2013-06-30 03:30:00,
2013-06-29 23:35:00,76.1,69.1,29.83,East,79,0.0,2.0,79,0.00,,---,0.53,VWS V14.01,2013-06-30 03:35:00,
2013-06-29 23:40:00,76.0,69.0,29.83,WSW,248,0.0,1.0,79,0.00,,---,0.53,VWS V14.01,2013-06-30 03:40:00,
2013-06-29 23:45:00,76.0,69.0,29.83,ESE,118,1.0,1.0,79,0.00,,---,0.53,VWS V14.01,2013-06-30 03:45:00,
2013-06-29 23:50:00,75.9,68.9,29.83,NNE,14,0.0,2.0,79,0.00,,---,0.53,VWS V14.01,2013-06-30 03:50:00,
2013-06-29 23:55:00,75.9,68.9,29.83,WSW,240,2.0,2.0,79,0.00,,---,0.53,VWS V14.01,2013-06-30 03:55:00,